Weather History for Ruston, LA

Change the Weather History Date:

Tuesday, January 22, 2013

  Actual Average Record
Temperature  
Mean Temperature 43 °F -  
Max Temperature 52 °F 54 °F 80 °F (1943)
Min Temperature 34 °F 34 °F 7 °F (1985)
Degree Days  
Heating Degree Days 22    
Moisture  
Dew Point 27 °F    
Average Humidity 54    
Maximum Humidity 80    
Minimum Humidity 36    
Precipitation  
Precipitation 0.00 in - - ()
Sea Level Pressure  
Sea Level Pressure 30.35 in    
Wind  
Wind Speed 4 mph (ENE)    
Max Wind Speed 9 mph    
Max Gust Speed -    
Visibility 10 miles    
Events      
Averages and records for this station are not official NWS values.
T = Trace of Precipitation, MM = Missing Value Source: NWS Daily Summary

Daily Weather History Graph

Daily Weather History Graph

Search for Another Location

Airport:

Trip Planner

Search our weather history database for the weather conditions in past years. The results will help you decide how hot, cold, wet, or windy it might be!

Date:

Astronomy

Jan. 22, 2013 Rise Set
Actual Time 7:10 AM CST 5:34 PM CST
Civil Twilight 6:43 AM CST 6:00 PM CST
Nautical Twilight 6:13 AM CST 6:30 PM CST
Astronomical Twilight 5:44 AM CST 6:59 PM CST
Moon 2:00 PM CST 3:29 AM CST
Length of Visible Light 11h 16m
Length of Day
10h 24m
Waxing Gibbous, 83% of the Moon is Illuminated
Jan 22
Waxing Gibbous
Jan 26
Full
Feb 3
Last Quarter
Feb 10
New
Feb 17
First Quarter

Hourly Weather History & Observations

Time (CST) Temp. Windchill Dew Point Humidity Pressure Visibility Wind Dir Wind Speed Gust Speed Precip Events Conditions
12:15 AM 38.7 °F 34.3 °F 28.6 °F 67% 30.33 in 10.0 mi NNE 5.8 mph - N/A   Scattered Clouds
12:35 AM 39.2 °F 35.0 °F 28.2 °F 65% 30.33 in 10.0 mi NE 5.8 mph - N/A   Overcast
12:55 AM 38.3 °F 33.9 °F 27.7 °F 66% 30.33 in 10.0 mi ENE 5.8 mph - N/A   Mostly Cloudy
1:15 AM 38.1 °F 33.7 °F 27.0 °F 64% 30.33 in 10.0 mi ENE 5.8 mph - N/A   Scattered Clouds
1:35 AM 37.8 °F 33.3 °F 26.4 °F 64% 30.34 in 10.0 mi ENE 5.8 mph - N/A   Scattered Clouds
1:55 AM 37.4 °F 32.8 °F 26.1 °F 64% 30.34 in 10.0 mi ENE 5.8 mph - N/A   Scattered Clouds
2:15 AM 37.4 °F 32.8 °F 25.7 °F 63% 30.35 in 10.0 mi ENE 5.8 mph - N/A   Mostly Cloudy
2:35 AM 37.8 °F 35.3 °F 25.7 °F 62% 30.35 in 10.0 mi ENE 3.5 mph - N/A   Overcast
2:55 AM 37.4 °F 34.9 °F 25.7 °F 63% 30.35 in 10.0 mi NE 3.5 mph - N/A   Mostly Cloudy
3:15 AM 37.6 °F 34.0 °F 25.7 °F 62% 30.35 in 10.0 mi NE 4.6 mph - N/A   Overcast
3:35 AM 37.6 °F 34.0 °F 25.7 °F 62% 30.36 in 10.0 mi ENE 4.6 mph - N/A   Overcast
3:55 AM 37.9 °F 34.4 °F 25.5 °F 61% 30.35 in 10.0 mi NE 4.6 mph - N/A   Overcast
4:15 AM 38.3 °F 33.9 °F 24.8 °F 58% 30.35 in 10.0 mi NE 5.8 mph - N/A   Overcast
4:35 AM 38.3 °F 33.2 °F 23.5 °F 55% 30.35 in 10.0 mi ENE 6.9 mph - N/A   Overcast
4:55 AM 38.3 °F 33.9 °F 23.0 °F 54% 30.36 in 10.0 mi ENE 5.8 mph - N/A   Overcast
5:15 AM 38.3 °F 34.8 °F 23.2 °F 55% 30.36 in 10.0 mi ENE 4.6 mph - N/A   Overcast
5:35 AM 37.9 °F 32.7 °F 23.2 °F 55% 30.36 in 10.0 mi East 6.9 mph - N/A   Overcast
5:55 AM 37.9 °F 33.5 °F 23.0 °F 55% 30.37 in 10.0 mi ENE 5.8 mph - N/A   Overcast
6:15 AM 37.8 °F 34.2 °F 23.2 °F 56% 30.36 in 10.0 mi East 4.6 mph - N/A   Mostly Cloudy
6:35 AM 37.0 °F - 23.0 °F 57% 30.37 in 10.0 mi Calm Calm - N/A   Scattered Clouds
6:55 AM 36.7 °F - 23.2 °F 58% 30.37 in 10.0 mi Calm Calm - N/A   Clear
7:15 AM 35.6 °F - 24.4 °F 64% 30.38 in 10.0 mi Calm Calm - N/A   Clear
7:35 AM 34.9 °F - 24.4 °F 66% 30.38 in 10.0 mi Calm Calm - N/A   Scattered Clouds
7:55 AM 36.0 °F - 25.3 °F 65% 30.39 in 10.0 mi Calm Calm - N/A   Overcast
8:15 AM 37.4 °F - 23.9 °F 58% 30.39 in 10.0 mi Calm Calm - N/A   Mostly Cloudy
8:35 AM 38.7 °F - 23.9 °F 55% 30.39 in 10.0 mi Calm Calm - N/A   Mostly Cloudy
8:55 AM 40.6 °F 34.8 °F 23.2 °F 50% 30.40 in 10.0 mi East 9.2 mph - N/A   Overcast
9:15 AM 41.7 °F 36.1 °F 22.3 °F 46% 30.41 in 10.0 mi East 9.2 mph - N/A   Overcast
9:35 AM 43.3 °F 39.9 °F 22.3 °F 43% 30.41 in 10.0 mi ESE 5.8 mph - N/A   Mostly Cloudy
9:55 AM 45.0 °F 41.8 °F 21.2 °F 39% 30.41 in 10.0 mi East 5.8 mph - N/A   Clear
10:15 AM 45.7 °F 42.0 °F 21.6 °F 38% 30.42 in 10.0 mi East 6.9 mph - N/A   Mostly Cloudy
10:35 AM 45.9 °F 42.3 °F 21.7 °F 38% 30.42 in 10.0 mi East 6.9 mph - N/A   Overcast
10:55 AM 46.9 °F - 21.4 °F 36% 30.41 in 10.0 mi East 5.8 mph - N/A   Overcast
11:15 AM 48.0 °F - 22.3 °F 36% 30.40 in 10.0 mi East 5.8 mph - N/A   Mostly Cloudy
11:55 AM 48.9 °F - 23.5 °F 37% 30.39 in 10.0 mi East 4.6 mph - N/A   Overcast
12:15 PM 48.7 °F - 23.5 °F 37% 30.38 in 10.0 mi East 5.8 mph - N/A   Overcast
12:35 PM 49.3 °F - 23.5 °F 36% 30.37 in 10.0 mi East 3.5 mph - N/A   Overcast
12:55 PM 49.1 °F - 23.4 °F 36% 30.36 in 10.0 mi East 5.8 mph - N/A   Overcast
1:15 PM 50.0 °F - 24.1 °F 36% 30.35 in 10.0 mi East 5.8 mph - N/A   Overcast
1:35 PM 50.0 °F - 25.0 °F 38% 30.34 in 10.0 mi SSE 4.6 mph - N/A   Overcast
1:55 PM 50.4 °F - 25.3 °F 38% 30.34 in 10.0 mi East 4.6 mph - N/A   Overcast
2:15 PM 50.9 °F - 25.9 °F 38% 30.33 in 10.0 mi East 5.8 mph - N/A   Mostly Cloudy
2:35 PM 51.3 °F - 27.3 °F 40% 30.33 in 10.0 mi East 3.5 mph - N/A   Mostly Cloudy
2:55 PM 52.0 °F - 27.7 °F 39% 30.33 in 10.0 mi NE 3.5 mph - N/A   Overcast
3:15 PM 52.2 °F - 29.1 °F 41% 30.33 in 10.0 mi ENE 3.5 mph - N/A   Overcast
3:35 PM 52.9 °F - 28.6 °F 39% 30.33 in 10.0 mi East 3.5 mph - N/A   Overcast
3:55 PM 52.5 °F - 28.9 °F 40% 30.33 in 10.0 mi ENE 4.6 mph - N/A   Mostly Cloudy
4:15 PM 52.5 °F - 29.1 °F 41% 30.33 in 10.0 mi East 4.6 mph - N/A   Scattered Clouds
4:35 PM 52.0 °F - 29.1 °F 41% 30.32 in 10.0 mi ENE 3.5 mph - N/A   Clear
4:55 PM 51.8 °F - 30.2 °F 44% 30.31 in 10.0 mi East 3.5 mph - N/A   Clear
5:15 PM 50.0 °F - 31.3 °F 49% 30.32 in 10.0 mi Calm Calm - N/A   Clear
5:35 PM 48.2 °F - 31.1 °F 52% 30.33 in 10.0 mi ENE 3.5 mph - N/A   Clear
5:55 PM 46.4 °F - 31.8 °F 57% 30.33 in 10.0 mi Calm Calm - N/A   Clear
6:15 PM 45.3 °F 43.0 °F 31.1 °F 58% 30.33 in 10.0 mi ENE 4.6 mph - N/A   Scattered Clouds
6:35 PM 44.8 °F 42.4 °F 30.7 °F 58% 30.33 in 10.0 mi ENE 4.6 mph - N/A   Mostly Cloudy
6:55 PM 43.9 °F 42.3 °F 30.0 °F 58% 30.34 in 10.0 mi ENE 3.5 mph - N/A   Scattered Clouds
7:15 PM 43.7 °F 42.1 °F 30.2 °F 59% 30.34 in 10.0 mi ENE 3.5 mph - N/A   Mostly Cloudy
7:35 PM 43.7 °F - 30.4 °F 59% 30.34 in 10.0 mi Calm Calm - N/A   Mostly Cloudy
7:55 PM 43.7 °F 42.1 °F 30.2 °F 59% 30.35 in 10.0 mi ENE 3.5 mph - N/A   Overcast
8:15 PM 43.0 °F - 30.7 °F 62% 30.35 in 10.0 mi Calm Calm - N/A   Mostly Cloudy
8:35 PM 43.2 °F - 30.2 °F 60% 30.34 in 10.0 mi Calm Calm - N/A   Mostly Cloudy
8:55 PM 42.8 °F - 30.2 °F 61% 30.34 in 10.0 mi Calm Calm - N/A   Scattered Clouds
9:15 PM 41.9 °F - 30.4 °F 64% 30.34 in 10.0 mi Calm Calm - N/A   Clear
9:35 PM 41.0 °F - 30.6 °F 66% 30.34 in 10.0 mi Calm Calm - N/A   Clear
9:55 PM 39.7 °F - 31.6 °F 73% 30.33 in 10.0 mi Calm Calm - N/A   Clear
10:15 PM 38.5 °F - 32.5 °F 79% 30.34 in 10.0 mi Calm Calm - N/A   Clear
10:35 PM 38.1 °F 35.7 °F 32.0 °F 79% 30.34 in 10.0 mi South 3.5 mph - N/A   Clear
10:55 PM 38.3 °F - 32.0 °F 78% 30.33 in 10.0 mi Calm Calm - N/A   Clear
11:15 PM 38.3 °F - 32.0 °F 78% 30.33 in 10.0 mi Calm Calm - N/A   Clear
11:55 PM 37.4 °F - 31.8 °F 80% 30.33 in 10.0 mi Calm Calm - N/A   Clear